Time,TemperatureF,DewpointF,PressureIn,WindDirection,WindDirectionDegrees,WindSpeedMPH,WindSpeedGustMPH,Humidity,HourlyPrecipIn,Conditions,Clouds,dailyrainin,SoftwareType,DateUTC
2013-07-23 00:01:00,65.1,57.7,29.88,NNE,22,0.0,0.0,77,0.00,,,0.00,WUHU21623XXSP,2013-07-23 07:01:00,
2013-07-23 00:06:00,65.1,58.1,29.89,NNE,22,0.0,0.0,78,0.00,,,0.00,WUHU21623XXSP,2013-07-23 07:06:00,
2013-07-23 00:11:00,65.3,58.3,29.89,NNE,22,0.0,0.0,78,0.00,,,0.00,WUHU21623XXSP,2013-07-23 07:11:00,
2013-07-23 00:16:00,65.3,58.3,29.89,South,180,0.0,0.0,78,0.00,,,0.00,WUHU21623XXSP,2013-07-23 07:16:00,
2013-07-23 00:21:00,65.1,58.1,29.89,South,180,0.0,0.0,78,0.00,,,0.00,WUHU21623XXSP,2013-07-23 07:21:00,
2013-07-23 00:26:00,65.3,58.3,29.89,SE,135,0.0,0.0,78,0.00,,,0.00,WUHU21623XXSP,2013-07-23 07:26:00,
2013-07-23 00:31:00,65.3,58.6,29.90,SE,135,0.0,0.0,79,0.00,,,0.00,WUHU21623XXSP,2013-07-23 07:31:00,
2013-07-23 00:36:00,65.3,58.3,29.90,South,180,0.0,0.0,78,0.00,,,0.00,WUHU21623XXSP,2013-07-23 07:36:00,
2013-07-23 00:41:00,65.3,58.6,29.90,SSE,157,0.0,0.0,79,0.00,,,0.00,WUHU21623XXSP,2013-07-23 07:41:00,
2013-07-23 00:46:00,65.3,58.3,29.90,WSW,247,0.0,0.0,78,0.00,,,0.00,WUHU21623XXSP,2013-07-23 07:46:00,
2013-07-23 00:51:00,65.3,58.6,29.90,NW,315,0.0,0.0,79,0.00,,,0.00,WUHU21623XXSP,2013-07-23 07:51:00,
2013-07-23 00:56:00,65.3,58.6,29.89,WNW,292,0.9,0.9,79,0.00,,,0.00,WUHU21623XXSP,2013-07-23 07:56:00,
2013-07-23 01:01:00,65.3,58.6,29.90,WNW,292,0.0,0.9,79,0.00,,,0.00,WUHU21623XXSP,2013-07-23 08:01:00,
2013-07-23 01:06:00,65.3,59.0,29.90,NNW,337,0.0,0.0,80,0.00,,,0.00,WUHU21623XXSP,2013-07-23 08:06:00,
2013-07-23 01:11:00,65.1,58.4,29.89,NW,315,0.0,0.0,79,0.00,,,0.00,WUHU21623XXSP,2013-07-23 08:11:00,
2013-07-23 01:16:00,65.1,58.4,29.89,NW,315,1.3,1.3,79,0.00,,,0.00,WUHU21623XXSP,2013-07-23 08:16:00,
2013-07-23 01:21:00,65.1,58.4,29.89,WNW,292,0.0,1.3,79,0.00,,,0.00,WUHU21623XXSP,2013-07-23 08:21:00,
2013-07-23 01:26:00,65.3,59.0,29.89,WNW,292,0.0,0.0,80,0.00,,,0.00,WUHU21623XXSP,2013-07-23 08:26:00,
2013-07-23 01:31:00,65.3,59.0,29.89,WNW,292,0.0,0.0,80,0.00,,,0.00,WUHU21623XXSP,2013-07-23 08:31:00,
2013-07-23 01:36:00,65.1,58.4,29.89,West,270,0.0,0.0,79,0.00,,,0.00,WUHU21623XXSP,2013-07-23 08:36:00,
2013-07-23 01:41:00,65.1,58.4,29.89,WNW,292,1.8,1.8,79,0.00,,,0.00,WUHU21623XXSP,2013-07-23 08:41:00,
2013-07-23 01:46:00,65.1,58.8,29.89,WNW,292,0.0,1.8,80,0.00,,,0.00,WUHU21623XXSP,2013-07-23 08:46:00,
2013-07-23 01:51:00,65.1,58.8,29.88,WNW,292,0.0,1.3,80,0.00,,,0.00,WUHU21623XXSP,2013-07-23 08:51:00,
2013-07-23 01:56:00,65.1,58.8,29.88,WNW,292,0.0,0.0,80,0.00,,,0.00,WUHU21623XXSP,2013-07-23 08:56:00,
2013-07-23 02:01:00,65.1,58.8,29.89,NNW,337,0.0,0.0,80,0.00,,,0.00,WUHU21623XXSP,2013-07-23 09:01:00,
2013-07-23 02:06:00,65.1,58.8,29.88,WSW,247,0.0,0.0,80,0.00,,,0.00,WUHU21623XXSP,2013-07-23 09:06:00,
2013-07-23 02:11:00,65.1,59.1,29.88,WNW,292,0.0,0.9,81,0.00,,,0.00,WUHU21623XXSP,2013-07-23 09:11:00,
2013-07-23 02:16:00,65.1,59.1,29.88,South,180,0.0,0.9,81,0.00,,,0.00,WUHU21623XXSP,2013-07-23 09:16:00,
2013-07-23 02:21:00,65.1,59.1,29.90,South,180,0.0,0.0,82,0.00,,,0.00,WUHU21623XXSP,2013-07-23 09:21:00,
2013-07-23 02:26:00,65.1,59.8,29.90,East,90,0.0,0.0,83,0.00,,,0.00,WUHU21623XXSP,2013-07-23 09:26:00,
2013-07-23 02:31:00,65.1,59.8,29.89,ESE,112,0.0,0.0,83,0.00,,,0.00,WUHU21623XXSP,2013-07-23 09:31:00,
2013-07-23 02:36:00,65.1,59.8,29.88,East,90,0.0,0.0,83,0.00,,,0.00,WUHU21623XXSP,2013-07-23 09:36:00,
2013-07-23 02:41:00,65.1,60.2,29.88,ESE,112,0.0,0.0,84,0.00,,,0.00,WUHU21623XXSP,2013-07-23 09:41:00,
2013-07-23 02:46:00,64.9,59.6,29.88,South,180,0.0,0.0,83,0.00,,,0.00,WUHU21623XXSP,2013-07-23 09:46:00,
2013-07-23 02:51:00,64.9,60.0,29.89,South,180,0.0,0.9,84,0.00,,,0.00,WUHU21623XXSP,2013-07-23 09:51:00,
2013-07-23 02:56:00,64.9,59.6,29.88,NNW,337,0.0,0.9,83,0.00,,,0.00,WUHU21623XXSP,2013-07-23 09:56:00,
2013-07-23 03:01:00,64.8,59.8,29.89,SSE,157,0.0,0.0,84,0.00,,,0.00,WUHU21623XXSP,2013-07-23 10:01:00,
2013-07-23 03:06:00,64.8,60.2,29.89,ESE,112,0.0,0.0,85,0.00,,,0.00,WUHU21623XXSP,2013-07-23 10:06:00,
2013-07-23 03:11:00,64.8,60.2,29.90,South,180,0.0,0.0,85,0.00,,,0.00,WUHU21623XXSP,2013-07-23 10:11:00,
2013-07-23 03:16:00,64.8,60.2,29.90,SSE,157,0.0,0.0,85,0.00,,,0.00,WUHU21623XXSP,2013-07-23 10:16:00,
2013-07-23 03:21:00,64.8,60.2,29.90,SW,225,0.0,0.0,85,0.00,,,0.00,WUHU21623XXSP,2013-07-23 10:21:00,
2013-07-23 03:26:00,64.8,60.2,29.89,NW,315,0.0,0.0,85,0.00,,,0.00,WUHU21623XXSP,2013-07-23 10:26:00,
2013-07-23 03:31:00,64.8,59.8,29.89,WNW,292,0.0,0.0,84,0.00,,,0.00,WUHU21623XXSP,2013-07-23 10:31:00,
2013-07-23 03:36:00,64.8,60.2,29.88,West,270,0.0,0.0,85,0.00,,,0.00,WUHU21623XXSP,2013-07-23 10:36:00,
2013-07-23 03:41:00,64.8,60.2,29.88,NW,315,0.0,0.0,85,0.00,,,0.00,WUHU21623XXSP,2013-07-23 10:41:00,
2013-07-23 03:46:00,64.6,60.2,29.88,WNW,292,0.0,0.0,86,0.00,,,0.00,WUHU21623XXSP,2013-07-23 10:46:00,
2013-07-23 03:51:00,64.6,60.3,29.89,East,90,0.0,0.0,86,0.00,,,0.00,WUHU21623XXSP,2013-07-23 10:51:00,
2013-07-23 03:56:00,64.8,60.2,29.89,ESE,112,0.0,0.0,86,0.00,,,0.00,WUHU21623XXSP,2013-07-23 10:56:00,
2013-07-23 04:01:00,64.8,60.5,29.89,East,90,0.0,0.0,86,0.00,,,0.00,WUHU21623XXSP,2013-07-23 11:01:00,
2013-07-23 04:06:00,64.8,60.2,29.88,WSW,247,0.0,1.3,85,0.00,,,0.00,WUHU21623XXSP,2013-07-23 11:06:00,
2013-07-23 04:11:00,64.8,60.3,29.88,WSW,247,0.0,1.3,85,0.00,,,0.00,WUHU21623XXSP,2013-07-23 11:11:00,
2013-07-23 04:16:00,64.8,60.5,29.87,West,270,0.0,0.0,86,0.00,,,0.00,WUHU21623XXSP,2013-07-23 11:16:00,
2013-07-23 04:21:00,64.6,60.3,29.88,ESE,112,0.0,0.0,86,0.00,,,0.00,WUHU21623XXSP,2013-07-23 11:21:00,
2013-07-23 04:26:00,64.6,61.0,29.89,SSE,157,0.0,0.0,88,0.00,,,0.00,WUHU21623XXSP,2013-07-23 11:26:00,
2013-07-23 04:31:00,64.6,60.8,29.89,SW,225,0.0,0.0,87,0.00,,,0.00,WUHU21623XXSP,2013-07-23 11:31:00,
2013-07-23 04:36:00,64.6,60.7,29.89,South,180,0.0,0.0,87,0.00,,,0.00,WUHU21623XXSP,2013-07-23 11:36:00,
2013-07-23 04:41:00,64.8,60.8,29.90,SSE,157,0.0,0.0,87,0.00,,,0.00,WUHU21623XXSP,2013-07-23 11:41:00,
2013-07-23 04:46:00,64.6,60.7,29.90,SW,225,0.0,0.0,87,0.00,,,0.00,WUHU21623XXSP,2013-07-23 11:46:00,
2013-07-23 04:51:00,64.6,60.7,29.90,SSE,157,0.0,0.0,87,0.00,,,0.00,WUHU21623XXSP,2013-07-23 11:51:00,
2013-07-23 04:56:00,64.6,60.7,29.90,South,180,0.0,0.0,87,0.00,,,0.00,WUHU21623XXSP,2013-07-23 11:56:00,
2013-07-23 05:01:00,64.6,60.7,29.90,South,180,0.0,0.0,87,0.00,,,0.00,WUHU21623XXSP,2013-07-23 12:01:00,
2013-07-23 05:06:00,64.6,61.3,29.91,SE,135,1.3,1.3,89,0.00,,,0.00,WUHU21623XXSP,2013-07-23 12:06:00,
2013-07-23 05:11:00,64.6,61.7,29.91,South,180,1.8,1.8,90,0.00,,,0.00,WUHU21623XXSP,2013-07-23 12:11:00,
2013-07-23 05:16:00,64.6,61.3,29.91,South,180,0.0,1.8,89,0.00,,,0.00,WUHU21623XXSP,2013-07-23 12:16:00,
2013-07-23 05:21:00,64.6,61.3,29.91,South,180,0.0,1.3,89,0.00,,,0.00,WUHU21623XXSP,2013-07-23 12:21:00,
2013-07-23 05:26:00,64.6,61.3,29.91,South,180,0.0,1.3,89,0.00,,,0.00,WUHU21623XXSP,2013-07-23 12:26:00,
2013-07-23 05:31:00,64.6,61.3,29.91,South,180,0.0,0.0,89,0.00,,,0.00,WUHU21623XXSP,2013-07-23 12:31:00,
2013-07-23 05:36:00,64.6,61.3,29.91,SSW,202,0.0,0.0,89,0.00,,,0.00,WUHU21623XXSP,2013-07-23 12:36:00,
2013-07-23 05:41:00,64.6,61.7,29.91,WNW,292,1.6,1.6,90,0.00,,,0.00,WUHU21623XXSP,2013-07-23 12:41:00,
2013-07-23 05:46:00,64.6,61.3,29.91,West,270,0.0,1.6,89,0.00,,,0.00,WUHU21623XXSP,2013-07-23 12:46:00,
2013-07-23 05:51:00,64.2,61.5,29.92,South,180,2.0,2.0,90,0.00,,,0.00,WUHU21623XXSP,2013-07-23 12:51:00,
2013-07-23 05:56:00,64.2,61.3,29.92,SSW,202,0.0,2.0,90,0.00,,,0.00,WUHU21623XXSP,2013-07-23 12:56:00,
2013-07-23 06:01:00,64.2,61.6,29.93,South,180,2.9,2.9,91,0.00,,,0.00,WUHU21623XXSP,2013-07-23 13:01:00,
2013-07-23 06:06:00,64.2,61.3,29.92,WNW,292,0.0,2.9,90,0.00,,,0.00,WUHU21623XXSP,2013-07-23 13:06:00,
2013-07-23 06:11:00,64.0,61.2,29.92,SW,225,0.0,1.3,90,0.00,,,0.00,WUHU21623XXSP,2013-07-23 13:11:00,
2013-07-23 06:16:00,64.0,61.4,29.92,WSW,247,0.0,0.0,91,0.00,,,0.00,WUHU21623XXSP,2013-07-23 13:16:00,
2013-07-23 06:21:00,64.0,61.4,29.92,NNW,337,0.0,1.3,91,0.00,,,0.00,WUHU21623XXSP,2013-07-23 13:21:00,
2013-07-23 06:26:00,64.0,61.4,29.92,WNW,292,0.0,1.3,91,0.00,,,0.00,WUHU21623XXSP,2013-07-23 13:26:00,
2013-07-23 06:31:00,64.0,61.7,29.93,ESE,112,0.0,0.0,92,0.00,,,0.00,WUHU21623XXSP,2013-07-23 13:31:00,
2013-07-23 06:36:00,64.0,61.7,29.93,South,180,0.0,0.0,92,0.00,,,0.00,WUHU21623XXSP,2013-07-23 13:36:00,
2013-07-23 06:41:00,64.0,61.7,29.93,South,180,1.6,1.6,92,0.00,,,0.00,WUHU21623XXSP,2013-07-23 13:41:00,
2013-07-23 06:46:00,64.0,61.7,29.93,South,180,0.0,1.6,92,0.00,,,0.00,WUHU21623XXSP,2013-07-23 13:46:00,
2013-07-23 06:52:00,64.0,61.7,29.93,WNW,292,0.0,0.9,92,0.00,,,0.00,WUHU21623XXSP,2013-07-23 13:52:00,
2013-07-23 06:57:00,64.0,61.7,29.93,SW,225,0.0,0.9,92,0.00,,,0.00,WUHU21623XXSP,2013-07-23 13:57:00,
2013-07-23 07:02:00,64.0,61.7,29.93,SW,225,0.0,0.0,92,0.00,,,0.00,WUHU21623XXSP,2013-07-23 14:02:00,
2013-07-23 07:07:00,64.0,61.7,29.93,WNW,292,0.0,0.0,92,0.00,,,0.00,WUHU21623XXSP,2013-07-23 14:07:00,
2013-07-23 07:12:00,64.0,61.7,29.93,WNW,292,0.9,0.9,92,0.00,,,0.00,WUHU21623XXSP,2013-07-23 14:12:00,
2013-07-23 07:17:00,64.0,61.7,29.93,North,0,0.0,0.9,92,0.00,,,0.00,WUHU21623XXSP,2013-07-23 14:17:00,
2013-07-23 07:22:00,64.0,62.0,29.93,NW,315,0.0,0.0,93,0.00,,,0.00,WUHU21623XXSP,2013-07-23 14:22:00,
2013-07-23 07:27:00,64.0,62.0,29.93,WNW,292,0.0,0.0,93,0.00,,,0.00,WUHU21623XXSP,2013-07-23 14:27:00,
2013-07-23 07:32:00,64.0,62.3,29.92,NNW,337,0.9,0.9,93,0.00,,,0.00,WUHU21623XXSP,2013-07-23 14:32:00,
2013-07-23 07:37:00,64.0,62.0,29.92,WNW,292,0.0,1.1,93,0.00,,,0.00,WUHU21623XXSP,2013-07-23 14:37:00,
2013-07-23 07:42:00,64.0,62.0,29.92,NNE,22,0.0,1.1,93,0.00,,,0.00,WUHU21623XXSP,2013-07-23 14:42:00,
2013-07-23 07:47:00,64.0,62.2,29.92,NW,315,0.0,0.0,93,0.00,,,0.00,WUHU21623XXSP,2013-07-23 14:47:00,
2013-07-23 07:52:00,64.2,62.2,29.92,NW,315,0.0,0.0,93,0.00,,,0.00,WUHU21623XXSP,2013-07-23 14:52:00,
2013-07-23 07:57:00,64.2,62.2,29.92,NW,315,0.0,0.0,93,0.00,,,0.00,WUHU21623XXSP,2013-07-23 14:57:00,
2013-07-23 08:02:00,64.2,61.9,29.92,NNW,337,0.0,0.7,92,0.00,,,0.00,WUHU21623XXSP,2013-07-23 15:02:00,
2013-07-23 08:07:00,64.2,61.9,29.92,NW,315,0.0,0.7,92,0.00,,,0.00,WUHU21623XXSP,2013-07-23 15:07:00,
2013-07-23 08:12:00,64.6,62.1,29.92,WNW,292,1.1,1.1,92,0.00,,,0.00,WUHU21623XXSP,2013-07-23 15:12:00,
2013-07-23 08:17:00,64.6,62.3,29.92,WNW,292,0.0,1.1,92,0.00,,,0.00,WUHU21623XXSP,2013-07-23 15:17:00,
2013-07-23 08:22:00,64.6,62.0,29.92,NNW,337,1.8,1.8,91,0.00,,,0.00,WUHU21623XXSP,2013-07-23 15:22:00,
2013-07-23 08:27:00,64.8,62.1,29.92,NW,315,0.0,1.8,91,0.00,,,0.00,WUHU21623XXSP,2013-07-23 15:27:00,
2013-07-23 08:32:00,64.8,61.8,29.92,WNW,292,0.0,0.0,90,0.00,,,0.00,WUHU21623XXSP,2013-07-23 15:32:00,
2013-07-23 08:37:00,64.9,62.0,29.93,NW,315,1.8,2.2,90,0.00,,,0.00,WUHU21623XXSP,2013-07-23 15:37:00,
2013-07-23 08:42:00,65.1,62.2,29.93,SW,225,0.0,2.2,90,0.00,,,0.00,WUHU21623XXSP,2013-07-23 15:42:00,
2013-07-23 08:47:00,65.1,61.8,29.93,West,270,2.5,2.5,89,0.00,,,0.00,WUHU21623XXSP,2013-07-23 15:47:00,
2013-07-23 08:52:00,65.3,61.7,29.93,WSW,247,0.0,2.5,88,0.00,,,0.00,WUHU21623XXSP,2013-07-23 15:52:00,
2013-07-23 08:57:00,65.3,61.7,29.93,West,270,0.0,0.0,88,0.00,,,0.00,WUHU21623XXSP,2013-07-23 15:57:00,
2013-07-23 09:02:00,65.5,61.5,29.93,WSW,247,0.7,2.2,87,0.00,,,0.00,WUHU21623XXSP,2013-07-23 16:02:00,
2013-07-23 09:07:00,65.7,61.3,29.93,SW,225,3.1,3.1,86,0.00,,,0.00,WUHU21623XXSP,2013-07-23 16:07:00,
2013-07-23 09:12:00,65.8,61.5,29.93,WNW,292,1.1,3.1,86,0.00,,,0.00,WUHU21623XXSP,2013-07-23 16:12:00,
2013-07-23 09:17:00,66.0,61.3,29.93,WNW,292,2.2,2.2,85,0.00,,,0.00,WUHU21623XXSP,2013-07-23 16:17:00,
2013-07-23 09:22:00,66.0,61.0,29.93,West,270,0.0,2.2,84,0.00,,,0.00,WUHU21623XXSP,2013-07-23 16:22:00,
2013-07-23 09:27:00,66.2,61.2,29.93,West,270,0.0,0.0,84,0.00,,,0.00,WUHU21623XXSP,2013-07-23 16:27:00,
2013-07-23 09:32:00,66.6,60.9,29.93,WNW,292,1.3,1.3,82,0.00,,,0.00,WUHU21623XXSP,2013-07-23 16:32:00,
2013-07-23 09:37:00,66.7,61.1,29.93,WNW,292,0.0,1.3,82,0.00,,,0.00,WUHU21623XXSP,2013-07-23 16:37:00,
2013-07-23 09:42:00,66.9,60.6,29.93,SW,225,2.2,2.2,80,0.00,,,0.00,WUHU21623XXSP,2013-07-23 16:42:00,
2013-07-23 09:47:00,67.1,60.8,29.93,SSW,202,0.0,2.2,80,0.00,,,0.00,WUHU21623XXSP,2013-07-23 16:47:00,
2013-07-23 09:52:00,67.3,60.6,29.93,SSW,202,0.0,0.0,79,0.00,,,0.00,WUHU21623XXSP,2013-07-23 16:52:00,
2013-07-23 09:57:00,67.6,60.6,29.92,NNE,22,0.0,0.0,78,0.00,,,0.00,WUHU21623XXSP,2013-07-23 16:57:00,
2013-07-23 10:02:00,67.6,60.2,29.93,SW,225,0.9,0.9,77,0.00,,,0.00,WUHU21623XXSP,2013-07-23 17:02:00,
2013-07-23 10:07:00,67.8,60.0,29.93,WSW,247,0.0,0.9,76,0.00,,,0.00,WUHU21623XXSP,2013-07-23 17:07:00,
2013-07-23 10:12:00,67.8,60.0,29.93,WNW,292,1.1,1.1,76,0.00,,,0.00,WUHU21623XXSP,2013-07-23 17:12:00,
2013-07-23 10:17:00,68.2,60.0,29.93,SW,225,0.0,1.1,75,0.00,,,0.00,WUHU21623XXSP,2013-07-23 17:17:00,
2013-07-23 10:22:00,68.2,59.6,29.93,SW,225,0.0,1.1,74,0.00,,,0.00,WUHU21623XXSP,2013-07-23 17:22:00,
2013-07-23 10:27:00,68.5,59.9,29.93,WNW,292,2.0,2.2,74,0.00,,,0.00,WUHU21623XXSP,2013-07-23 17:27:00,
2013-07-23 10:32:00,68.9,59.9,29.93,South,180,0.0,2.2,73,0.00,,,0.00,WUHU21623XXSP,2013-07-23 17:32:00,
2013-07-23 10:37:00,69.1,59.3,29.93,WNW,292,0.0,1.1,71,0.00,,,0.00,WUHU21623XXSP,2013-07-23 17:37:00,
2013-07-23 10:42:00,69.4,58.8,29.93,NW,315,0.0,1.1,69,0.00,,,0.00,WUHU21623XXSP,2013-07-23 17:42:00,
2013-07-23 10:47:00,69.6,58.5,29.93,WSW,247,1.6,3.1,67,0.00,,,0.00,WUHU21623XXSP,2013-07-23 17:47:00,
2013-07-23 10:52:00,70.0,57.7,29.93,East,90,0.7,3.1,66,0.00,,,0.00,WUHU21623XXSP,2013-07-23 17:52:00,
2013-07-23 10:57:00,70.2,58.2,29.94,South,180,0.0,2.0,66,0.00,,,0.00,WUHU21623XXSP,2013-07-23 17:57:00,
2013-07-23 11:02:00,70.5,57.7,29.94,ESE,112,0.7,3.1,64,0.00,,,0.00,WUHU21623XXSP,2013-07-23 18:02:00,
2013-07-23 11:07:00,70.7,57.5,29.94,SSE,157,1.1,3.1,63,0.00,,,0.00,WUHU21623XXSP,2013-07-23 18:07:00,
2013-07-23 11:12:00,70.9,57.6,29.94,West,270,0.0,1.3,63,0.00,,,0.00,WUHU21623XXSP,2013-07-23 18:12:00,
2013-07-23 11:18:00,71.2,57.4,29.94,WSW,247,0.0,1.3,62,0.00,,,0.00,WUHU21623XXSP,2013-07-23 18:18:00,
2013-07-23 11:23:00,71.2,57.5,29.94,South,180,3.1,3.1,62,0.00,,,0.00,WUHU21623XXSP,2013-07-23 18:23:00,
2013-07-23 11:28:00,71.4,57.3,29.94,SSW,202,3.1,3.1,61,0.00,,,0.00,WUHU21623XXSP,2013-07-23 18:28:00,
2013-07-23 11:33:00,71.8,57.2,29.94,SSW,202,1.8,3.1,60,0.00,,,0.00,WUHU21623XXSP,2013-07-23 18:33:00,
2013-07-23 11:38:00,72.0,56.8,29.93,SSW,202,0.0,2.2,59,0.00,,,0.00,WUHU21623XXSP,2013-07-23 18:38:00,
2013-07-23 11:43:00,72.1,56.5,29.94,SW,225,0.0,2.7,58,0.00,,,0.00,WUHU21623XXSP,2013-07-23 18:43:00,
2013-07-23 11:48:00,72.3,56.2,29.93,SSE,157,0.0,2.7,57,0.00,,,0.00,WUHU21623XXSP,2013-07-23 18:48:00,
2013-07-23 11:53:00,72.5,56.8,29.94,South,180,1.3,1.6,58,0.00,,,0.00,WUHU21623XXSP,2013-07-23 18:53:00,
2013-07-23 11:58:00,73.0,56.8,29.93,SSW,202,1.1,2.9,57,0.00,,,0.00,WUHU21623XXSP,2013-07-23 18:58:00,
2013-07-23 12:03:00,73.2,56.0,29.93,SW,225,2.9,2.9,55,0.00,,,0.00,WUHU21623XXSP,2013-07-23 19:03:00,
2013-07-23 12:08:00,73.6,55.3,29.93,WNW,292,0.9,2.9,53,0.00,,,0.00,WUHU21623XXSP,2013-07-23 19:08:00,
2013-07-23 12:13:00,74.1,56.2,29.93,WNW,292,0.7,2.9,53,0.00,,,0.00,WUHU21623XXSP,2013-07-23 19:13:00,
2013-07-23 12:18:00,74.5,55.2,29.93,South,180,1.1,2.5,51,0.00,,,0.00,WUHU21623XXSP,2013-07-23 19:18:00,
2013-07-23 12:23:00,74.7,55.9,29.93,WNW,292,0.0,2.5,52,0.00,,,0.00,WUHU21623XXSP,2013-07-23 19:23:00,
2013-07-23 12:28:00,75.0,55.7,29.93,SW,225,1.3,5.4,51,0.00,,,0.00,WUHU21623XXSP,2013-07-23 19:28:00,
2013-07-23 12:33:00,75.6,55.1,29.93,ESE,112,2.5,5.6,49,0.00,,,0.00,WUHU21623XXSP,2013-07-23 19:33:00,
2013-07-23 12:38:00,75.9,55.4,29.93,SSE,157,3.6,5.6,49,0.00,,,0.00,WUHU21623XXSP,2013-07-23 19:38:00,
2013-07-23 12:43:00,76.1,54.4,29.93,SSW,202,2.5,4.0,47,0.00,,,0.00,WUHU21623XXSP,2013-07-23 19:43:00,
2013-07-23 12:48:00,76.3,54.5,29.93,SSW,202,2.5,4.0,47,0.00,,,0.00,WUHU21623XXSP,2013-07-23 19:48:00,
2013-07-23 12:53:00,76.6,54.9,29.93,WNW,292,3.1,3.1,47,0.00,,,0.00,WUHU21623XXSP,2013-07-23 19:53:00,
2013-07-23 12:58:00,76.6,54.7,29.93,WNW,292,1.1,5.4,48,0.00,,,0.00,WUHU21623XXSP,2013-07-23 19:58:00,
2013-07-23 13:03:00,76.6,55.5,29.93,SW,225,2.2,5.4,48,0.00,,,0.00,WUHU21623XXSP,2013-07-23 20:03:00,
2013-07-23 13:08:00,76.6,54.9,29.93,South,180,2.5,2.5,47,0.00,,,0.00,WUHU21623XXSP,2013-07-23 20:08:00,
2013-07-23 13:13:00,76.8,55.0,29.93,SSE,157,1.6,2.9,47,0.00,,,0.00,WUHU21623XXSP,2013-07-23 20:13:00,
2013-07-23 13:18:00,76.8,55.0,29.93,WNW,292,0.0,2.9,47,0.00,,,0.00,WUHU21623XXSP,2013-07-23 20:18:00,
2013-07-23 13:23:00,77.2,54.7,29.92,SW,225,0.9,2.9,46,0.00,,,0.00,WUHU21623XXSP,2013-07-23 20:23:00,
2013-07-23 13:28:00,77.2,54.7,29.92,SW,225,1.1,2.9,46,0.00,,,0.00,WUHU21623XXSP,2013-07-23 20:28:00,
2013-07-23 13:33:00,77.2,54.1,29.93,SSW,202,6.7,6.7,45,0.00,,,0.00,WUHU21623XXSP,2013-07-23 20:33:00,
2013-07-23 13:38:00,77.2,54.1,29.92,SSW,202,2.0,6.7,45,0.00,,,0.00,WUHU21623XXSP,2013-07-23 20:38:00,
2013-07-23 13:43:00,77.4,54.3,29.93,SW,225,0.0,4.7,45,0.00,,,0.00,WUHU21623XXSP,2013-07-23 20:43:00,
2013-07-23 13:48:00,77.5,54.4,29.93,SE,135,2.7,2.9,45,0.00,,,0.00,WUHU21623XXSP,2013-07-23 20:48:00,
2013-07-23 13:54:00,77.5,54.4,29.93,South,180,0.0,2.7,45,0.00,,,0.00,WUHU21623XXSP,2013-07-23 20:54:00,
2013-07-23 13:59:00,77.5,54.4,29.93,South,180,2.2,2.5,45,0.00,,,0.00,WUHU21623XXSP,2013-07-23 20:59:00,
2013-07-23 14:04:00,77.5,53.2,29.92,South,180,2.9,2.9,43,0.00,,,0.00,WUHU21623XXSP,2013-07-23 21:04:00,
2013-07-23 14:09:00,77.7,53.4,29.93,SE,135,1.8,2.9,43,0.00,,,0.00,WUHU21623XXSP,2013-07-23 21:09:00,
2013-07-23 14:14:00,77.9,52.9,29.93,SSW,202,4.0,4.0,42,0.00,,,0.00,WUHU21623XXSP,2013-07-23 21:14:00,
2013-07-23 14:19:00,77.9,52.3,29.92,West,270,2.0,4.0,41,0.00,,,0.00,WUHU21623XXSP,2013-07-23 21:19:00,
2013-07-23 14:24:00,77.9,52.3,29.93,South,180,4.0,6.5,41,0.00,,,0.00,WUHU21623XXSP,2013-07-23 21:24:00,
2013-07-23 14:29:00,78.1,53.1,29.93,South,180,1.3,6.5,42,0.00,,,0.00,WUHU21623XXSP,2013-07-23 21:29:00,
2013-07-23 14:34:00,78.1,53.1,29.92,SW,225,0.0,2.9,42,0.00,,,0.00,WUHU21623XXSP,2013-07-23 21:34:00,
2013-07-23 14:39:00,78.1,53.1,29.92,South,180,2.2,2.2,42,0.00,,,0.00,WUHU21623XXSP,2013-07-23 21:39:00,
2013-07-23 14:44:00,78.4,53.4,29.92,SE,135,2.2,4.7,42,0.00,,,0.00,WUHU21623XXSP,2013-07-23 21:44:00,
2013-07-23 14:49:00,78.4,54.0,29.92,West,270,4.5,4.7,43,0.00,,,0.00,WUHU21623XXSP,2013-07-23 21:49:00,
2013-07-23 14:54:00,78.6,54.2,29.92,WSW,247,2.2,4.5,43,0.00,,,0.00,WUHU21623XXSP,2013-07-23 21:54:00,
2013-07-23 14:59:00,78.4,53.4,29.91,SE,135,2.0,2.9,42,0.00,,,0.00,WUHU21623XXSP,2013-07-23 21:59:00,
2013-07-23 15:04:00,78.4,52.2,29.91,SSE,157,1.1,3.8,40,0.00,,,0.00,WUHU21623XXSP,2013-07-23 22:04:00,
2013-07-23 15:09:00,78.3,52.0,29.92,South,180,2.2,3.8,40,0.00,,,0.00,WUHU21623XXSP,2013-07-23 22:09:00,
2013-07-23 15:14:00,78.4,52.2,29.91,SE,135,1.6,3.4,40,0.00,,,0.00,WUHU21623XXSP,2013-07-23 22:14:00,
2013-07-23 15:20:00,78.3,52.6,29.91,WSW,247,0.0,3.4,41,0.00,,,0.00,WUHU21623XXSP,2013-07-23 22:20:00,
2013-07-23 15:25:00,78.4,52.2,29.91,West,270,0.0,0.9,40,0.00,,,0.00,WUHU21623XXSP,2013-07-23 22:25:00,
2013-07-23 15:30:00,78.1,51.1,29.91,West,270,3.6,3.6,39,0.00,,,0.00,WUHU21623XXSP,2013-07-23 22:30:00,
2013-07-23 15:35:00,78.1,51.1,29.91,ENE,67,0.0,3.6,39,0.00,,,0.00,WUHU21623XXSP,2013-07-23 22:35:00,
2013-07-23 15:40:00,78.1,50.3,29.91,WSW,247,1.6,4.9,38,0.00,,,0.00,WUHU21623XXSP,2013-07-23 22:40:00,
2013-07-23 15:46:00,77.9,50.2,29.91,East,90,0.0,4.9,38,0.00,,,0.00,WUHU21623XXSP,2013-07-23 22:46:00,
2013-07-23 15:51:00,77.7,50.0,29.91,SSE,157,0.0,0.0,38,0.00,,,0.00,WUHU21623XXSP,2013-07-23 22:51:00,
2013-07-23 15:56:00,77.7,49.2,29.91,West,270,1.3,2.0,37,0.00,,,0.00,WUHU21623XXSP,2013-07-23 22:56:00,
2013-07-23 16:01:00,77.7,49.2,29.91,SSW,202,4.0,4.0,37,0.00,,,0.00,WUHU21623XXSP,2013-07-23 23:01:00,
2013-07-23 16:06:00,77.7,50.0,29.90,East,90,1.1,4.0,38,0.00,,,0.00,WUHU21623XXSP,2013-07-23 23:06:00,
2013-07-23 16:11:00,77.7,50.0,29.91,SSE,157,0.0,1.6,38,0.00,,,0.00,WUHU21623XXSP,2013-07-23 23:11:00,
2013-07-23 16:16:00,77.7,50.0,29.90,SSE,157,0.0,1.6,38,0.00,,,0.00,WUHU21623XXSP,2013-07-23 23:16:00,
2013-07-23 16:21:00,77.5,49.9,29.91,SSE,157,0.0,3.8,38,0.00,,,0.00,WUHU21623XXSP,2013-07-23 23:21:00,
2013-07-23 16:26:00,77.7,49.2,29.90,WNW,292,0.0,3.8,37,0.00,,,0.00,WUHU21623XXSP,2013-07-23 23:26:00,
2013-07-23 16:31:00,77.5,49.1,29.90,SSE,157,0.9,3.1,37,0.00,,,0.00,WUHU21623XXSP,2013-07-23 23:31:00,
2013-07-23 16:36:00,77.5,49.2,29.90,South,180,0.0,1.1,37,0.00,,,0.00,WUHU21623XXSP,2013-07-23 23:36:00,
2013-07-23 16:41:00,77.5,49.9,29.90,SSE,157,0.0,0.9,38,0.00,,,0.00,WUHU21623XXSP,2013-07-23 23:41:00,
2013-07-23 16:46:00,77.5,50.6,29.90,SSE,157,0.0,4.0,39,0.00,,,0.00,WUHU21623XXSP,2013-07-23 23:46:00,
2013-07-23 16:51:00,77.4,50.5,29.90,SSE,157,4.5,4.5,39,0.00,,,0.00,WUHU21623XXSP,2013-07-23 23:51:00,
2013-07-23 16:56:00,77.2,51.1,29.89,SSE,157,2.7,4.5,40,0.00,,,0.00,WUHU21623XXSP,2013-07-23 23:56:00,
2013-07-23 17:01:00,77.2,51.7,29.90,SSW,202,1.8,2.7,41,0.00,,,0.00,WUHU21623XXSP,2013-07-24 00:01:00,
2013-07-23 17:06:00,77.0,51.5,29.89,South,180,0.0,2.9,41,0.00,,,0.00,WUHU21623XXSP,2013-07-24 00:06:00,
2013-07-23 17:11:00,77.2,51.7,29.89,SSE,157,3.4,3.4,41,0.00,,,0.00,WUHU21623XXSP,2013-07-24 00:11:00,
2013-07-23 17:16:00,77.0,51.5,29.89,SSE,157,0.0,3.4,41,0.00,,,0.00,WUHU21623XXSP,2013-07-24 00:16:00,
2013-07-23 17:21:00,77.2,51.7,29.89,East,90,0.9,0.9,41,0.00,,,0.00,WUHU21623XXSP,2013-07-24 00:21:00,
2013-07-23 17:26:00,77.0,51.5,29.88,SSW,202,0.0,1.6,41,0.00,,,0.00,WUHU21623XXSP,2013-07-24 00:26:00,
2013-07-23 17:31:00,76.8,51.4,29.88,SW,225,0.0,1.6,41,0.00,,,0.00,WUHU21623XXSP,2013-07-24 00:31:00,
2013-07-23 17:36:00,77.0,51.5,29.88,SSE,157,2.9,2.9,41,0.00,,,0.00,WUHU21623XXSP,2013-07-24 00:36:00,
2013-07-23 17:41:00,77.0,50.9,29.88,South,180,1.3,2.9,40,0.00,,,0.00,WUHU21623XXSP,2013-07-24 00:41:00,
2013-07-23 17:46:00,76.8,50.7,29.88,SSW,202,0.0,3.6,40,0.00,,,0.00,WUHU21623XXSP,2013-07-24 00:46:00,
2013-07-23 17:51:00,76.8,50.0,29.88,SE,135,0.9,3.8,39,0.00,,,0.00,WUHU21623XXSP,2013-07-24 00:51:00,
2013-07-23 17:57:00,76.8,50.7,29.88,SSW,202,0.0,3.8,40,0.00,,,0.00,WUHU21623XXSP,2013-07-24 00:57:00,
2013-07-23 18:02:00,76.6,49.8,29.88,West,270,0.0,3.4,39,0.00,,,0.00,WUHU21623XXSP,2013-07-24 01:02:00,
2013-07-23 18:07:00,76.3,50.3,29.88,SSW,202,0.0,3.4,40,0.00,,,0.00,WUHU21623XXSP,2013-07-24 01:07:00,
2013-07-23 18:12:00,76.1,50.7,29.88,SSE,157,0.9,3.1,41,0.00,,,0.00,WUHU21623XXSP,2013-07-24 01:12:00,
2013-07-23 18:17:00,75.9,49.9,29.88,SSW,202,2.9,3.8,40,0.00,,,0.00,WUHU21623XXSP,2013-07-24 01:17:00,
2013-07-23 18:22:00,75.9,50.5,29.88,South,180,4.0,4.0,41,0.00,,,0.00,WUHU21623XXSP,2013-07-24 01:22:00,
2013-07-23 18:27:00,75.6,50.2,29.88,SSE,157,4.0,4.0,41,0.00,,,0.00,WUHU21623XXSP,2013-07-24 01:27:00,
2013-07-23 18:32:00,75.4,50.1,29.88,SSE,157,0.9,4.0,41,0.00,,,0.00,WUHU21623XXSP,2013-07-24 01:32:00,
2013-07-23 18:37:00,75.0,49.7,29.88,WSW,247,0.9,0.9,41,0.00,,,0.00,WUHU21623XXSP,2013-07-24 01:37:00,
2013-07-23 18:42:00,74.8,49.5,29.88,ESE,112,0.9,0.9,41,0.00,,,0.00,WUHU21623XXSP,2013-07-24 01:42:00,
2013-07-23 18:47:00,74.5,49.2,29.89,South,180,0.9,1.3,41,0.00,,,0.00,WUHU21623XXSP,2013-07-24 01:47:00,
2013-07-23 18:52:00,74.3,49.1,29.89,ESE,112,0.0,1.3,41,0.00,,,0.00,WUHU21623XXSP,2013-07-24 01:52:00,
2013-07-23 18:57:00,73.8,48.6,29.89,South,180,0.0,1.3,41,0.00,,,0.00,WUHU21623XXSP,2013-07-24 01:57:00,
2013-07-23 19:02:00,73.6,49.0,29.88,SSW,202,0.0,1.3,42,0.00,,,0.00,WUHU21623XXSP,2013-07-24 02:02:00,
2013-07-23 19:07:00,73.0,49.1,29.88,WNW,292,0.0,1.1,43,0.00,,,0.00,WUHU21623XXSP,2013-07-24 02:07:00,
2013-07-23 19:12:00,72.7,48.8,29.89,South,180,0.0,1.1,43,0.00,,,0.00,WUHU21623XXSP,2013-07-24 02:12:00,
2013-07-23 19:17:00,72.5,49.2,29.89,NE,45,2.2,2.2,44,0.00,,,0.00,WUHU21623XXSP,2013-07-24 02:17:00,
2013-07-23 19:22:00,72.1,49.5,29.89,East,90,2.5,2.5,45,0.00,,,0.00,WUHU21623XXSP,2013-07-24 02:22:00,
2013-07-23 19:27:00,71.8,49.2,29.89,SSW,202,0.0,2.5,45,0.00,,,0.00,WUHU21623XXSP,2013-07-24 02:27:00,
2013-07-23 19:32:00,71.6,49.6,29.89,West,270,0.0,0.7,46,0.00,,,0.00,WUHU21623XXSP,2013-07-24 02:32:00,
2013-07-23 19:38:00,71.4,50.0,29.89,WSW,247,0.0,0.9,47,0.00,,,0.00,WUHU21623XXSP,2013-07-24 02:38:00,
2013-07-23 19:43:00,71.4,50.0,29.89,South,180,1.6,1.6,47,0.00,,,0.00,WUHU21623XXSP,2013-07-24 02:43:00,
2013-07-23 19:48:00,71.2,49.9,29.89,East,90,0.0,1.6,47,0.00,,,0.00,WUHU21623XXSP,2013-07-24 02:48:00,
2013-07-23 19:53:00,71.2,50.5,29.89,South,180,1.6,1.6,48,0.00,,,0.00,WUHU21623XXSP,2013-07-24 02:53:00,
2013-07-23 19:58:00,71.1,50.3,29.89,SSE,157,0.0,1.6,48,0.00,,,0.00,WUHU21623XXSP,2013-07-24 02:58:00,
2013-07-23 20:03:00,70.9,50.7,29.89,East,90,1.1,2.7,49,0.00,,,0.00,WUHU21623XXSP,2013-07-24 03:03:00,
2013-07-23 20:08:00,70.7,50.6,29.90,SSE,157,0.0,2.7,49,0.00,,,0.00,WUHU21623XXSP,2013-07-24 03:08:00,
2013-07-23 20:13:00,70.5,50.4,29.89,ESE,112,0.0,0.0,49,0.00,,,0.00,WUHU21623XXSP,2013-07-24 03:13:00,
2013-07-23 20:18:00,70.3,50.8,29.89,SSE,157,0.9,1.3,50,0.00,,,0.00,WUHU21623XXSP,2013-07-24 03:18:00,
2013-07-23 20:23:00,70.2,51.2,29.90,SW,225,0.0,1.3,51,0.00,,,0.00,WUHU21623XXSP,2013-07-24 03:23:00,
2013-07-23 20:28:00,70.0,51.0,29.90,South,180,1.1,1.1,51,0.00,,,0.00,WUHU21623XXSP,2013-07-24 03:28:00,
2013-07-23 20:33:00,69.8,51.4,29.90,South,180,0.0,1.6,52,0.00,,,0.00,WUHU21623XXSP,2013-07-24 03:33:00,
2013-07-23 20:38:00,69.6,51.2,29.90,South,180,0.0,1.6,52,0.00,,,0.00,WUHU21623XXSP,2013-07-24 03:38:00,
2013-07-23 20:43:00,69.6,51.7,29.90,ENE,67,0.0,0.7,53,0.00,,,0.00,WUHU21623XXSP,2013-07-24 03:43:00,
2013-07-23 20:49:00,69.4,51.5,29.90,South,180,0.0,0.7,53,0.00,,,0.00,WUHU21623XXSP,2013-07-24 03:49:00,
2013-07-23 20:54:00,69.4,51.5,29.90,SW,225,1.1,1.1,53,0.00,,,0.00,WUHU21623XXSP,2013-07-24 03:54:00,
2013-07-23 20:59:00,69.3,51.9,29.90,SE,135,0.7,2.5,54,0.00,,,0.00,WUHU21623XXSP,2013-07-24 03:59:00,
2013-07-23 21:04:00,69.1,52.2,29.90,South,180,2.2,2.5,55,0.00,,,0.00,WUHU21623XXSP,2013-07-24 04:04:00,
2013-07-23 21:09:00,68.9,52.0,29.90,South,180,0.9,2.2,55,0.00,,,0.00,WUHU21623XXSP,2013-07-24 04:09:00,
2013-07-23 21:14:00,68.7,52.3,29.91,SSW,202,2.2,2.2,56,0.00,,,0.00,WUHU21623XXSP,2013-07-24 04:14:00,
2013-07-23 21:19:00,68.5,52.7,29.91,SSW,202,3.1,3.1,57,0.00,,,0.00,WUHU21623XXSP,2013-07-24 04:19:00,
2013-07-23 21:24:00,68.4,52.5,29.90,South,180,2.2,3.1,57,0.00,,,0.00,WUHU21623XXSP,2013-07-24 04:24:00,
2013-07-23 21:29:00,68.2,52.8,29.91,SW,225,0.0,2.2,58,0.00,,,0.00,WUHU21623XXSP,2013-07-24 04:29:00,
2013-07-23 21:34:00,67.8,52.5,29.91,East,90,0.0,0.9,58,0.00,,,0.00,WUHU21623XXSP,2013-07-24 04:34:00,
2013-07-23 21:39:00,67.8,53.4,29.91,SE,135,2.2,2.2,60,0.00,,,0.00,WUHU21623XXSP,2013-07-24 04:39:00,
2013-07-23 21:44:00,67.6,53.3,29.91,SSE,157,0.0,2.2,60,0.00,,,0.00,WUHU21623XXSP,2013-07-24 04:44:00,
2013-07-23 21:49:00,67.3,53.4,29.91,ESE,112,0.0,0.0,61,0.00,,,0.00,WUHU21623XXSP,2013-07-24 04:49:00,
2013-07-23 21:54:00,67.3,53.8,29.91,SSE,157,0.0,2.0,62,0.00,,,0.00,WUHU21623XXSP,2013-07-24 04:54:00,
2013-07-23 21:59:00,67.1,53.6,29.91,South,180,2.9,2.9,62,0.00,,,0.00,WUHU21623XXSP,2013-07-24 04:59:00,
2013-07-23 22:04:00,66.9,53.9,29.91,South,180,2.7,2.9,63,0.00,,,0.00,WUHU21623XXSP,2013-07-24 05:04:00,
2013-07-23 22:09:00,66.7,54.1,29.91,SE,135,0.0,2.7,64,0.00,,,0.00,WUHU21623XXSP,2013-07-24 05:09:00,
2013-07-23 22:14:00,66.7,54.6,29.91,South,180,1.8,2.2,65,0.00,,,0.00,WUHU21623XXSP,2013-07-24 05:14:00,
2013-07-23 22:19:00,66.6,54.4,29.92,SE,135,0.0,2.2,65,0.00,,,0.00,WUHU21623XXSP,2013-07-24 05:19:00,
2013-07-23 22:24:00,66.4,55.0,29.92,SSE,157,1.1,4.3,67,0.00,,,0.00,WUHU21623XXSP,2013-07-24 05:24:00,
2013-07-23 22:29:00,66.2,55.3,29.91,South,180,0.0,4.3,68,0.00,,,0.00,WUHU21623XXSP,2013-07-24 05:29:00,
2013-07-23 22:34:00,66.0,55.1,29.91,South,180,3.8,3.8,68,0.00,,,0.00,WUHU21623XXSP,2013-07-24 05:34:00,
2013-07-23 22:39:00,66.0,56.3,29.92,South,180,0.0,3.8,71,0.00,,,0.00,WUHU21623XXSP,2013-07-24 05:39:00,
2013-07-23 22:44:00,65.8,56.2,29.92,South,180,3.6,3.6,71,0.00,,,0.00,WUHU21623XXSP,2013-07-24 05:44:00,
2013-07-23 22:49:00,65.5,56.2,29.92,SSW,202,0.0,3.6,72,0.00,,,0.00,WUHU21623XXSP,2013-07-24 05:49:00,
2013-07-23 22:54:00,65.5,56.6,29.92,SSW,202,0.0,3.6,73,0.00,,,0.00,WUHU21623XXSP,2013-07-24 05:54:00,
2013-07-23 22:59:00,65.5,57.3,29.92,SE,135,0.0,0.0,75,0.00,,,0.00,WUHU21623XXSP,2013-07-24 05:59:00,
2013-07-23 23:04:00,65.3,57.9,29.92,SE,135,0.0,0.0,77,0.00,,,0.00,WUHU21623XXSP,2013-07-24 06:04:00,
2013-07-23 23:09:00,65.3,57.5,29.92,East,90,0.0,0.0,76,0.00,,,0.00,WUHU21623XXSP,2013-07-24 06:09:00,
2013-07-23 23:14:00,65.1,57.7,29.92,East,90,0.0,0.9,77,0.00,,,0.00,WUHU21623XXSP,2013-07-24 06:14:00,
2013-07-23 23:19:00,65.1,58.4,29.92,SE,135,0.9,0.9,79,0.00,,,0.00,WUHU21623XXSP,2013-07-24 06:19:00,
2013-07-23 23:24:00,65.1,58.4,29.92,South,180,1.6,1.6,79,0.00,,,0.00,WUHU21623XXSP,2013-07-24 06:24:00,
2013-07-23 23:29:00,64.9,58.3,29.92,SSE,157,1.3,1.6,79,0.00,,,0.00,WUHU21623XXSP,2013-07-24 06:29:00,
2013-07-23 23:34:00,64.9,59.6,29.92,South,180,0.0,1.3,83,0.00,,,0.00,WUHU21623XXSP,2013-07-24 06:34:00,
2013-07-23 23:39:00,64.9,59.3,29.92,ENE,67,1.3,1.3,83,0.00,,,0.00,WUHU21623XXSP,2013-07-24 06:39:00,
2013-07-23 23:44:00,64.8,60.2,29.92,ENE,67,0.0,2.5,85,0.00,,,0.00,WUHU21623XXSP,2013-07-24 06:44:00,
2013-07-23 23:49:00,64.8,60.2,29.92,SSW,202,2.2,2.5,85,0.00,,,0.00,WUHU21623XXSP,2013-07-24 06:49:00,
2013-07-23 23:54:00,64.6,60.3,29.92,South,180,2.0,2.2,86,0.00,,,0.00,WUHU21623XXSP,2013-07-24 06:54:00,
2013-07-23 23:59:00,64.6,60.7,29.92,East,90,0.7,2.0,87,0.00,,,0.00,WUHU21623XXSP,2013-07-24 06:59:00,